Regional Weather Roundup
Issued by NWS

Home | Current Version | Previous Version | Graphics & Text | Print | Product List | Glossary On
Versions: 1 2 3 4 5 6 7 8 9 10 11 12 13 14 15 16 17 18 19 20 21 22 23 24 25 26 27 28 29 30 31 32 33 34 35 36 37 38 39 40 41 42 43 44 45 46 47 48 49 50
000
ASUS43 KDTX 300901
RWRMI
MICHIGAN HOURLY REGIONAL WEATHER ROUNDUP
NATIONAL WEATHER SERVICE DETROIT/PONTIAC MI
500 AM EDT SAT AUG 30 2014

NOTE: "FAIR" INDICATES FEW OR NO CLOUDS BELOW 12,000 FEET WITH NO
SIGNIFICANT WEATHER AND/OR OBSTRUCTION TO VISIBILITY.

MIZ047>049-052>055-059>063-066>070-074>076-081>083-301000-
SOUTHEAST LOWER MICHIGAN

CITY           SKY/WX    TMP DP  RH WIND       PRES   REMARKS
ADRIAN         PTCLDY    69  63  81 S9        29.98F
ALMA           MOCLDY    67  64  87 S5        29.91S
ANN ARBOR      MOCLDY    67  61  81 SW3       29.98S
BAD AXE        PTCLDY    66  63  88 S12G18    29.95S
CARO           PTCLDY    67  62  84 SE6       29.93S
DETROIT CITY   PTCLDY    72  63  73 S7        29.98F
DETROIT        MOCLDY    69  63  81 S3        29.98S
FLINT          PTCLDY    74  62  66 S9        29.95S
GROSSE ILE     PTCLDY    73  64  73 S14       29.97S
HILLSDALE      CLEAR     68  67  94 S5        29.98S
HOWELL         PTCLDY    69  63  80 S9        29.95F

CITY           SKY/WX    TMP DP  RH WIND       PRES   REMARKS
JACKSON        PTCLDY    72  64  76 S9        29.95F
LAMBERTVILLE   PTCLDY    72  63  73 S7        29.98F
LANSING        PTCLDY    70  63  78 S10       29.93F
LAPEER         FAIR      69  61  75 S7        29.97R
MASON          PTCLDY    68  63  84 S7        29.94F
MONROE         MOCLDY    73  63  68 S8        29.97S
MT. CLEMENS    PTCLDY    69  64  83 S7        29.97F
PONTIAC        MOCLDY    70  62  76 S6        29.97F
PORT HOPE        N/A     66  59  78 VRB5      29.92F
PORT HURON     PTCLDY    66  61  82 SE5       29.99R
TRI CITIES     MOCLDY    69  62  78 S8        29.92F
TROY           PTCLDY    72  64  76 S3        30.00S
SAGINAW HB     PTCLDY    64  63  94 S5        29.92F
$$
MIZ043>046-050>051-056>058-064>065-071>073-077>080-301000-
SOUTHWEST LOWER MICHIGAN

CITY           SKY/WX    TMP DP  RH WIND       PRES   REMARKS
BATTLE CREEK   CLEAR     71  65  81 S9        29.93F
BENTON HARBOR  MOCLDY    73  67  81 S9        29.87F
BIG RAPIDS     PTCLDY    68  67  97 SE7       29.87F
COLDWATER      CLEAR     71  66  84 S6        29.95S
FREMONT        FAIR      71  65  83 S6        29.85F
HOLLAND        MOCLDY    74  68  81 S13       29.87F
GRAND RAPIDS   PTCLDY    72  70  93 S10       29.89F
IONIA          FAIR      70  65  86 S10G16    29.90S
KALAMAZOO      PTCLDY    71  66  84 S8        29.91F
LUDINGTON      MOCLDY    75  68  77 S12G17    29.82F
MARSHALL       CLEAR     69  65  85 S6        29.93F
MOUNT PLEASANT MOCLDY    68  64  86 SE6       29.89F
MUSKEGON       MOCLDY    75  67  76 S10       29.85F
SOUTH HAVEN    MOCLDY    74  69  83 S12       29.87F
$$
MIZ016>042-301000-
NORTHERN LOWER MICHIGAN

CITY           SKY/WX    TMP DP  RH WIND       PRES   REMARKS
ALPENA         PTCLDY    63  61  93 S7        29.88F
BEAVER ISLAND  CLOUDY    71  68  91 S5        29.80F
BELLAIRE       CLOUDY    72  65  80 S7        29.82S
CADILLAC       MOCLDY    70  66  88 S8G16     29.87F
CHARLEVOIX     CLOUDY    72  68  88 S10       29.84S
FRANKFORT      MOCLDY    74  67  78 S12G17    29.80S
GAYLORD        MOCLDY    67  64  90 S9        29.87F
GRAYLING       MOCLDY    69  66  89 S8        29.88F
HARBOR SPRINGS MOCLDY    71  67  85 CALM      29.83S
HOUGHTON LAKE  CLOUDY    68  63  84 S8        29.89F
MANISTEE       MOCLDY    73  66  78 S6        29.82F
OSCODA         PTCLDY    66  61  83 S6        29.90F
PELLSTON       CLOUDY    67  66  97 CALM      29.82F
TRAVERSE CITY  LGT RAIN  73  67  81 S5        29.80F
$$
MIZ007>008-015-301000-
EASTERN UPPER MICHIGAN

CITY           SKY/WX    TMP DP  RH WIND       PRES   REMARKS
KINROSS        CLOUDY    66  66 100 SE5       29.83F
MACKINAC ISLAN CLOUDY    65  65 100 N3        29.82F FOG
NEWBERRY       CLOUDY    68  67  98 SW6       29.80F FOG
S. S. MARIE    CLOUDY    65  63  93 SE5       29.83F FOG
$$
MIZ004>006-011>014-085-301000-
CENTRAL UPPER MICHIGAN

CITY           SKY/WX    TMP DP  RH WIND       PRES   REMARKS
MANISTIQUE     LGT RAIN  67  67  99 SW7       29.78F
ESCANABA       CLOUDY    66  63  88 SE5       29.79R
MENOMINEE      CLOUDY    66  64  94 E3        29.77F
SAWYER-GWINN   LGT RAIN  63  62  97 CALM      29.77F
$$
MIZ001>003-009>011-084-301000-
WESTERN UPPER MICHIGAN

CITY           SKY/WX    TMP DP  RH WIND       PRES   REMARKS
IRON MOUNTAIN  LGT RAIN  64  63  96 SE5       29.76F FOG
HOUGHTON       LGT RAIN  62  60  93 CALM      29.76F
COPPER HARBOR    N/A     58  57  97 N5        29.77S
$$

ABBREVIATIONS USED IN REMARKS
   TC - TEMPERATURE IN CELSIUS
  WCI - WIND CHILL INDEX
   HX - HEAT INDEX
  VSB - VISIBILITY




USA.gov is the U.S. government's official web portal to all federal, state and local government web resources and services.